User: anonymous   Login
Location: Pine Mountain Observatory
(43.7910°N, 120.9377°W)
Time: 14:41:38
(UTC-07:00)
Language:

Transit 2A - Orbit

View from above orbital plane
View from above orbital plane
View from above satellite
View from above satellite

Ground track
Ground track

The orbit data is extracted from the following two-line orbital elements,

1    45U 60007A   19140.08389482 -.00000064  00000-0  11311-4 0  9991
2    45  66.6946 340.1312 0262355 243.4625 113.9364 14.33637158 66179
Epoch (UTC): 20 May 2019 02:00:48
Eccentricity: 0.0262355
inclination: 66.6946°
perigee height: 592 km
apogee height: 967 km
right ascension of ascending node: 340.1312°
argument of perigee: 243.4625°
revolutions per day: 14.33637158
mean anomaly at epoch: 113.9364°
orbit number at epoch: 6617

The dashed part of the orbit path shows where the satellite is in the earth's shadow,  

DLR